Home > Weather > Varel > Past weeks

Flag for Germany Weather for the Past 2 Weeks in Varel, Lower Saxony, Germany

Now
41 °F

Partly sunny.


Feels Like: 34 °F
Forecast: 36 / 43 °F
Wind: 13 mph from Southwest

Location: Wittmundhaven

Current Time: Feb 9, 2016 at 11:27:26 AM

Latest Report: Feb 9, 2016 at 10:20 AM


Visibility: N/A

Pressure: 29.18 "Hg

Humidity: 87%

Dew point: 37 °F

Location of VarelLocation

Historic Weather in Varel — Graph

°F

Varel Temperature Yesterday

Maximum temperature yesterday: 50 °F (at 1:20 PM)
Minimum temperature yesterday: 43 °F (at 12:20 AM)
Average temperature yesterday: 46 °F

High & Low Weather Summary for the Past Weeks

 TemperatureHumidityPressure
High54 °F (Jan 25, 2:20 PM)100% (Jan 25, 9:20 AM)30.24 "Hg (Jan 25, 9:20 AM)
Low34 °F (Feb 4, 10:20 PM)62% (Feb 2, 1:20 PM)29.00 "Hg (Feb 8, 6:20 PM)
Average45 °F84%29.77 "Hg
* Reported Jan 25 9:20 AM — Feb 9 9:48 AM, Varel, Weather by CustomWeather, © 2016

Note: Actual official high and low records may vary slightly from our data, if they occured in-between our weather recording intervals... More about our weather records

Advertising

Varel Weather History for the Previous 24 Hours

 ConditionsComfort  
Time TempWeatherWind HumidityBarometerVisibility
9:48 AM
Tue, Feb 9
41 °FSprinkles. Broken clouds.17 mph81%29.21 "Hg2 mi
8:55 AM39 °FBroken clouds.15 mph93%29.21 "HgN/A
8:20 AM39 °FSprinkles. Fog.29 mph87%29.21 "Hg1 mi
7:20 AM43 °FPassing clouds.16 mph76%29.21 "HgN/A
6:20 AM45 °FPassing clouds.22 mph76%29.21 "HgN/A
5:20 AM43 °FLight rain. Passing clouds.25 mph87%29.21 "HgN/A
4:20 AM45 °FLight rain. Passing clouds.26 mph81%29.18 "Hg6 mi
3:20 AM43 °FRain. Passing clouds.21 mph93%29.15 "Hg4 mi
2:20 AM45 °FLight rain. Partly cloudy.23 mph87%29.15 "HgN/A
1:20 AM45 °FLight rain. Partly cloudy.22 mph87%29.09 "HgN/A
12:20 AM43 °FRain. Passing clouds.20 mph93%29.09 "Hg5 mi
11:20 PM
Mon, Feb 8
45 °FLight rain. Passing clouds.22 mph81%29.06 "HgN/A
10:20 PM45 °FLight rain. Passing clouds.22 mph87%29.03 "HgN/A
9:20 PM45 °FLight rain. Mostly cloudy.24 mph87%29.03 "Hg6 mi
8:20 PM45 °FRain. Fog.28 mph87%29.03 "Hg3 mi
7:45 PM45 °FHeavy rain. Partly cloudy.30 mph87%29.03 "Hg4 mi
7:20 PM45 °FRain. Partly cloudy.29 mph87%29.00 "HgN/A
6:20 PM46 °FLight rain. Passing clouds.25 mph76%29.00 "HgN/A
5:20 PM46 °FBroken clouds.25 mph76%29.03 "HgN/A
4:20 PM46 °FSprinkles. Partly sunny.23 mph71%29.03 "HgN/A
3:20 PM48 °FPartly sunny.26 mph66%29.03 "HgN/A
2:20 PM48 °FScattered clouds.29 mph66%29.03 "HgN/A
1:20 PM50 °FScattered clouds.25 mph62%29.03 "HgN/A
12:20 PM48 °FScattered clouds.24 mph71%29.06 "HgN/A
11:20 AM48 °FPartly sunny.26 mph76%29.06 "HgN/A
Weather by CustomWeather, © 2016

See weather overviewHow to use our weather pages